Weather in Saravan

Laos     15°42′58″N   106°25′09″E
temp.,
°C
wind,
m/s
gust,
m/s
humid.,
%
clouds,
%
prec.,
mm/h
press.,
hPa
HPBL,
m
21 april, wed
wed2101:00+22e229027 0.6 100956
04:00+22e23905 0.0 100872
07:00+25ese23778 0.0 1011196
10:00+34ssw12415 0.0 10101488
13:00+36nw223287 0.0 10072920
16:00+35wnw223781 0.0 10052337
19:00+27e126440 0.1 100741
22:00+23e238688 0.3 101064
22 april, thu
thu2201:00+23e119159 1.5 100943
04:00+21ese2498100 2.2 100999
07:00+23ese1292100 5.1 1011172
10:00+33wsw1249100 0.1 10101043
13:00+35wnw233792 0.1 10062556
16:00+29wnw366097 0.3 1005499
19:00+24ene128829 1.1 100753
22:00+23e239165 0.0 100963
23 april, fri
fri2301:00+23ese11929 0.0 100742
04:00+22e129513 0.0 100760
07:00+24ese138235 0.0 1009233
10:00+32ssw015158 0.4 10091129
13:00+37nw223577 0.6 10052761
16:00+34w234217 0.0 10041843
19:00+26ese24746 0.9 1006113
22:00+23e23926 0.8 100973
24 april, sat
sat2401:00+22e23959 1.0 100870
04:00+22e129620 0.1 100854
07:00+24e13855 0.1 1009170
10:00+34sse114549 0.0 10091170
13:00+38wsw233072 0.0 10053135
16:00+31e1349100 0.1 1004511
19:00+24nne1190100 4.0 100823
22:00+24ene119096 0.5 101019
25 april, sun
sun2501:00+22nne1297100 4.6 101087
04:00+23ese2497100 1.0 1008127
07:00+24ese239152 1.0 1010173
10:00+33s114729 0.0 10101112
13:00+36wnw223675 0.0 10072704
16:00+36wsw333460 0.0 10042104
19:00+23e369297 3.3 1008166
22:00+23ene2398100 14.2 1011125